Weather History for KNPA - November, 2012

Change the Weather History Date:

Saturday, November 24, 2012

  Actual Average (KPNS) Record (KPNS)
Temperature  
Mean Temperature 51 °F 58 °F  
Max Temperature 61 °F 68 °F 83 °F (1978)
Min Temperature 37 °F 49 °F 26 °F (1970)
Degree Days  
Heating Degree Days 14 8  
Month to date heating degree days 122  
Since 1 July heating degree days 160  
Cooling Degree Days 0 1  
Month to date cooling degree days 40  
Year to date cooling degree days 2590  
Growing Degree Days 1 (Base 50)    
Moisture  
Dew Point 36 °F    
Average Humidity 58    
Maximum Humidity 89    
Minimum Humidity 32    
Precipitation  
Precipitation 0.00 in 0.15 in 3.74 in (2000)
Month to date precipitation 3.79  
Year to date precipitation 59.78  
Snow  
Snow 0.00 in 0.00 in 0.00 in (2002)
Month to date snowfall 0.0  
Since 1 July snowfall 0.0  
Snow Depth -    
Sea Level Pressure  
Sea Level Pressure 30.19 in    
Wind  
Wind Speed 8 mph (NNW)    
Max Wind Speed 14 mph    
Max Gust Speed 20 mph    
Visibility 10 miles    
Events      
T = Trace of Precipitation, MM = Missing Value Source: NWS Daily Summary

Daily Weather History Graph

Daily Weather History Graph

Search for Another Location

Airport or City:

Trip Planner

Search our weather history database for the weather conditions in past years. The results will help you decide how hot, cold, wet, or windy it might be!

Date:

Astronomy

Nov. 24, 2012 Rise Set
Actual Time 6:22 AM CST 4:49 PM CST
Civil Twilight 5:57 AM CST 5:14 PM CST
Nautical Twilight 5:27 AM CST 5:44 PM CST
Astronomical Twilight 4:58 AM CST 6:13 PM CST
Moon 2:23 PM CST (11/24) 2:51 AM CST (11/24)
Length of Visible Light 11h 17m
Length of Day
10h 26m
Waxing Gibbous, 87% of the Moon is Illuminated
Nov 24
Waxing Gibbous
Nov 28
Full
Dec 6
Last Quarter
Dec 13
New
Dec 19
First Quarter

Hourly Weather History & Observations

Time (CST) Temp. Windchill Dew Point Humidity Pressure Visibility Wind Dir Wind Speed Gust Speed Precip Events Conditions
12:56 AM 57.0 °F - 54.0 °F 89% 30.16 in 10.0 mi NNW 10.4 mph - N/A   Clear
1:56 AM 55.0 °F - 50.0 °F 83% 30.16 in 10.0 mi NNW 6.9 mph - N/A   Clear
2:56 AM 53.1 °F - 45.0 °F 74% 30.17 in 10.0 mi NNW 11.5 mph 19.6 mph N/A   Clear
3:56 AM 50.0 °F - 41.0 °F 71% 30.18 in 10.0 mi NNW 6.9 mph - N/A   Clear
4:56 AM 48.9 °F - 39.0 °F 69% 30.19 in 10.0 mi North 9.2 mph - N/A   Clear
5:56 AM 46.9 °F - 37.9 °F 71% 30.22 in 10.0 mi NNW 8.1 mph - N/A   Clear
6:56 AM 46.0 °F 42.5 °F 37.0 °F 71% 30.24 in 10.0 mi North 6.9 mph - N/A   Clear
7:56 AM 48.0 °F - 36.0 °F 63% 30.26 in 10.0 mi North 8.1 mph - N/A   Clear
8:56 AM 51.1 °F - 36.0 °F 56% 30.26 in 10.0 mi NNW 8.1 mph - N/A   Scattered Clouds
9:56 AM 54.0 °F - 35.1 °F 49% 30.25 in 10.0 mi NNW 8.1 mph - N/A   Partly Cloudy
10:56 AM 57.0 °F - 34.0 °F 42% 30.23 in 10.0 mi North 9.2 mph - N/A   Partly Cloudy
11:56 AM 59.0 °F - 33.1 °F 38% 30.19 in 10.0 mi NNW 13.8 mph 19.6 mph N/A   Partly Cloudy
12:56 PM 60.1 °F - 33.1 °F 36% 30.17 in 10.0 mi NNW 11.5 mph 18.4 mph N/A   Partly Cloudy
1:56 PM 61.0 °F - 32.0 °F 34% 30.16 in 10.0 mi NNW 11.5 mph 16.1 mph N/A   Scattered Clouds
2:56 PM 61.0 °F - 30.9 °F 32% 30.15 in 10.0 mi North 8.1 mph - N/A   Scattered Clouds
3:56 PM 59.0 °F - 32.0 °F 36% 30.15 in 10.0 mi NNW 9.2 mph - N/A   Scattered Clouds
4:56 PM 53.1 °F - 30.9 °F 43% 30.16 in 10.0 mi North 4.6 mph - N/A   Scattered Clouds
5:30 PM 51.8 °F - 32.0 °F 47% 30.16 in 10.0 mi NNW 4.6 mph - N/A   Partly Cloudy
5:56 PM 50.0 °F - 32.0 °F 50% 30.18 in 10.0 mi NNW 4.6 mph - N/A   Clear
6:56 PM 48.0 °F - 34.0 °F 58% 30.19 in 10.0 mi North 3.5 mph - N/A   Clear
7:56 PM 46.0 °F 44.8 °F 33.1 °F 61% 30.19 in 10.0 mi North 3.5 mph - N/A   Clear
8:56 PM 45.0 °F 41.2 °F 32.0 °F 60% 30.19 in 10.0 mi North 6.9 mph - N/A   Clear
9:56 PM 43.0 °F 39.5 °F 30.9 °F 62% 30.19 in 10.0 mi North 5.8 mph - N/A   Clear
10:56 PM 41.0 °F - 30.9 °F 67% 30.18 in 10.0 mi Calm Calm - N/A   Clear
11:56 PM 37.0 °F 34.5 °F 30.9 °F 79% 30.18 in 10.0 mi North 3.5 mph - N/A   Clear